User: anonymous   Login
Location: PFO Observatory
(45.2937°N, 66.0991°W)
Time: 12:59:12
(UTC-04:00)
Language:

Cosmos 1151 Rocket - Orbit

View from above orbital plane
View from above orbital plane
View from above satellite
View from above satellite

Ground track
Ground track

The orbit data is extracted from the following two-line orbital elements,

1 11672U 80005B   17349.89289397 +.00000083 +00000-0 +62614-5 0  9994
2 11672 082.5165 267.8586 0018294 075.3117 285.0126 14.87899786029301
Epoch (UTC): 15 December 2017 21:25:46
Eccentricity: 0.0018294
inclination: 82.5165°
perigee height: 592 km
apogee height: 617 km
right ascension of ascending node: 267.8586°
argument of perigee: 75.3117°
revolutions per day: 14.87899786
mean anomaly at epoch: 285.0126°
orbit number at epoch: 2930

The dashed part of the orbit path shows where the satellite is in the earth's shadow,  

DLR